Home   Weather   Karlsruhe   Past weeks
Flag for Germany

Past Weather in Karlsruhe, Baden-Württemberg, Germany — Yesterday and Last 2 Weeks

Now
54 °F

Mostly cloudy.


Feels Like: 49 °F
Forecast: 62 / 50 °F
Wind: 14 mph from Southwest

Location: Karlsruhe - Baden Wurttemberg

Current Time: Oct 16, 2019 at 4:21:04 am

Latest Report: Oct 16, 2019 at 3:20 am


Visibility: N/A

Pressure: 29.98 "Hg

Humidity: 88%

Dew Point: 50 °F

Location of KarlsruheLocation

Past Weather in Karlsruhe — Graph

°F

Karlsruhe Temperature Yesterday

Maximum temperature yesterday: 64 °F (at 1:50 pm)
Minimum temperature yesterday: 52 °F (at 3:20 am)
Average temperature yesterday: 57 °F

High & Low Weather Summary for the Past Weeks

 TemperatureHumidityPressure
High79 °F (Oct 13, 4:20 pm)100% (Oct 2, 8:50 am)30.15 "Hg (Oct 2, 8:50 am)
Low39 °F (Oct 3, 4:50 am)48% (Oct 13, 4:20 pm)29.65 "Hg (Oct 1, 5:20 pm)
Average56 °F86%29.93 "Hg
* Reported Oct 1 2:20 am — Oct 16 2:50 am, Karlsruhe. Weather by CustomWeather, © 2019

Note: Actual official high and low records may vary slightly from our data, if they occured in-between our weather recording intervals... More about our weather records

Advertising

Karlsruhe Weather History for the Previous 24 Hours

Scroll right to see more
 ConditionsComfort  
Time TempWeatherWind HumidityBarometerVisibility
2:50 am
Wed, Oct 16
54 °FPartly cloudy.15 mph88%29.98 "HgN/A
2:20 am54 °FPassing clouds.14 mph88%29.95 "HgN/A
1:50 am52 °FPassing clouds.10 mph94%29.95 "HgN/A
1:20 am52 °FPartly cloudy.10 mph94%29.95 "HgN/A
12:50 am54 °FMostly cloudy.10 mph94%29.95 "HgN/A
12:20 am54 °FOvercast.12 mph94%29.95 "HgN/A
11:50 pm
Tue, Oct 15
54 °FMostly cloudy.10 mph94%29.95 "HgN/A
11:20 pm54 °FMostly cloudy.10 mph94%29.92 "HgN/A
10:50 pm54 °FLight rain. Mostly cloudy.9 mph94%29.92 "Hg6 mi
10:20 pm55 °FLight rain. Partly cloudy.10 mph88%29.89 "Hg6 mi
9:50 pm55 °FRain. Passing clouds.12 mph100%29.86 "HgN/A
9:20 pm55 °FRain. Partly cloudy.13 mph100%29.86 "HgN/A
8:50 pm55 °FRain. Mostly cloudy.12 mph100%29.86 "HgN/A
8:20 pm55 °FRain. Partly cloudy.13 mph100%29.86 "HgN/A
7:50 pm57 °FRain. Partly cloudy.10 mph94%29.83 "Hg5 mi
7:20 pm57 °FRain. Partly cloudy.9 mph94%29.83 "Hg6 mi
6:50 pm57 °FLight rain. Partly cloudy.7 mph94%29.80 "HgN/A
6:20 pm57 °FLight rain. Partly sunny.6 mph94%29.77 "HgN/A
5:50 pm57 °FLight rain. Broken clouds.3 mph94%29.77 "HgN/A
5:20 pm59 °FLight rain. Broken clouds.6 mph88%29.77 "HgN/A
4:50 pm59 °FLight rain. Broken clouds.6 mph82%29.77 "HgN/A
4:20 pm61 °FBroken clouds.7 mph77%29.77 "HgN/A
3:50 pm63 °FPassing clouds.5 mph73%29.77 "HgN/A
3:20 pm63 °FPassing clouds.6 mph73%29.77 "HgN/A
2:50 pm63 °FPassing clouds.7 mph73%29.77 "HgN/A
2:20 pm64 °FPartly sunny.7 mph83%29.77 "HgN/A
1:50 pm64 °FPassing clouds.6 mph83%29.77 "HgN/A
1:20 pm63 °FPartly sunny.8 mph83%29.77 "HgN/A
12:50 pm63 °FPassing clouds.8 mph83%29.77 "HgN/A
12:20 pm63 °FSunny.9 mph83%29.77 "Hg10 mi
11:50 am63 °FSunny.10 mph83%29.77 "Hg10 mi
11:20 am61 °FSunny.9 mph88%29.77 "Hg10 mi
10:50 am59 °FSunny.9 mph88%29.74 "Hg10 mi
10:20 am57 °FSunny.7 mph94%29.74 "Hg10 mi
9:50 am57 °FPassing clouds.5 mph88%29.71 "HgN/A
9:20 am55 °FPassing clouds.5 mph94%29.71 "HgN/A
8:50 am55 °FPassing clouds.3 mph94%29.71 "HgN/A
8:20 am54 °FSunny.2 mph94%29.71 "Hg10 mi
7:50 am54 °FPassing clouds.3 mph94%29.71 "HgN/A
7:20 am52 °FPassing clouds.3 mph94%29.71 "HgN/A
6:50 am52 °FClear.1 mph100%29.74 "Hg10 mi
6:20 am52 °FPassing clouds.3 mph94%29.74 "HgN/A
5:50 am52 °FClear.3 mph94%29.74 "Hg10 mi
5:20 am52 °FClear.3 mph100%29.77 "Hg10 mi
4:50 am52 °FCool.5 mph100%29.77 "HgN/A
4:20 am54 °FCool.2 mph100%29.77 "Hg4 mi
Weather by CustomWeather, © 2019

See weather overview